FW3224 Weather Reports


time (UTC)temp
F
wind
direction
speed
knots
gust
knots
rain 1hr
in
rain 24hr
in
rain mn
in
humidity
%
barometer
mb
20260903074548 75 236 3.5 8.7 0.00 0.00 0.00 40 1012.4
20260903074044 76 274 2.6 8.7 0.00 0.00 0.00 38 1012.2
20260903073544 76 241 2.6 8.7 0.00 0.00 0.00 38 1012.1
20260903073044 76 242 3.5 8.7 0.00 0.00 0.00 37 1012.0
20260903072546 77 211 1.7 8.7 0.00 0.00 0.00 38 1012.0
20260903072044 78 239 1.7 5.2 0.00 0.00 0.00 38 1012.0
20260903071551 78 266 1.7 6.1 0.00 0.00 0.00 37 1012.0
20260903071043 78 250 2.6 6.1 0.00 0.00 0.00 36 1011.9
20260903070545 79 226 1.7 9.6 0.00 0.00 0.00 35 1011.7
20260903070042 79 254 3.5 9.6 0.00 0.00 0.00 35 1011.7
20260903065543 79 246 3.5 9.6 0.00 0.00 0.00 34 1011.5
20260903065042 80 275 5.2 9.6 0.00 0.00 0.00 34 1011.5
20260903064548 80 280 3.5 9.6 0.00 0.00 0.00 34 1011.4
20260903064042 80 302 3.5 9.6 0.00 0.00 0.00 34 1011.3
20260903063541 80 242 3.5 9.6 0.00 0.00 0.00 34 1011.3
20260903063048 81 241 1.7 9.6 0.00 0.00 0.00 34 1011.1
20260903062542 81 268 5.2 9.6 0.00 0.00 0.00 33 1011.1
20260903062042 81 237 3.5 10.4 0.00 0.00 0.00 34 1011.0
20260903061542 82 258 4.3 10.4 0.00 0.00 0.00 33 1011.1
20260903061041 82 231 2.6 8.7 0.00 0.00 0.00 32 1011.1
20260903060541 82 240 2.6 8.7 0.00 0.00 0.00 32 1011.0
20260903060043 82 244 3.5 9.6 0.00 0.00 0.00 33 1011.0
20260903055544 82 229 2.6 9.6 0.00 0.00 0.00 32 1010.9
20260903055040 82 244 1.7 7.8 0.00 0.00 0.00 31 1010.9
20260903054540 82 251 0.9 7.8 0.00 0.00 0.00 31 1010.8
20260903054040 82 231 2.6 7.8 0.00 0.00 0.00 31 1010.7
20260903053539 82 215 3.5 8.7 0.00 0.00 0.00 30 1010.8
20260903053040 82 255 3.5 8.7 0.00 0.00 0.00 30 1010.7
20260903052540 82 200 3.5 7.8 0.00 0.00 0.00 29 1010.6
20260903052040 82 229 3.5 9.6 0.00 0.00 0.00 30 1010.6
20260903051540 82 220 3.5 13.0 0.00 0.00 0.00 30 1010.5
20260903051043 82 277 5.2 13.0 0.00 0.00 0.00 31 1010.5
20260903050539 82 246 6.1 10.4 0.00 0.00 0.00 30 1010.4
20260903050045 82 238 6.1 13.9 0.00 0.00 0.00 30 1010.3
20260903045539 82 217 4.3 13.9 0.00 0.00 0.00 29 1010.3
20260903045041 83 200 3.5 8.7 0.00 0.00 0.00 28 1010.2
20260903044545 83 227 2.6 8.7 0.00 0.00 0.00 29 1010.1
20260903044038 83 168 4.3 12.2 0.00 0.00 0.00 28 1010.1
20260903043539 83 226 3.5 12.2 0.00 0.00 0.00 28 1010.1
20260903043037 83 208 4.3 10.4 0.00 0.00 0.00 28 1010.1
20260903042537 83 234 3.5 9.6 0.00 0.00 0.00 28 1010.1
20260903042037 83 206 3.5 12.2 0.00 0.00 0.00 28 1010.0
20260903041544 83 223 5.2 13.9 0.00 0.00 0.00 28 1009.8
20260903041037 83 167 5.2 13.0 0.00 0.00 0.00 28 1009.7
20260903040535 83 236 3.5 7.8 0.00 0.00 0.00 30 1009.7
20260903040035 83 244 2.6 7.8 0.00 0.00 0.00 30 1009.6
20260903035534 83 191 3.5 8.7 0.00 0.00 0.00 29 1009.6
20260903035034 83 205 3.5 9.6 0.00 0.00 0.00 31 1009.5
20260903034537 83 196 4.3 11.3 0.00 0.00 0.00 31 1009.4
20260903034035 82 244 5.2 19.1 0.00 0.00 0.00 32 1009.4
20260903033533 82 240 7.8 19.1 0.00 0.00 0.00 31 1009.4
20260903033033 82 252 5.2 13.9 0.00 0.00 0.00 32 1009.4
20260903032535 82 256 7.0 13.0 0.00 0.00 0.00 31 1009.5
20260903032032 83 237 7.8 13.9 0.00 0.00 0.00 32 1009.6
20260903031536 83 220 6.1 13.0 0.00 0.00 0.00 31 1009.6
20260903031031 83 238 5.2 10.4 0.00 0.00 0.00 31 1009.6
20260903030530 83 169 4.3 9.6 0.00 0.00 0.00 32 1009.4
20260903030030 83 265 3.5 14.8 0.00 0.00 0.00 33 1009.3
20260903025532 83 235 7.0 14.8 0.00 0.00 0.00 31 1009.2
20260903025028 83 236 5.2 13.9 0.00 0.00 0.00 35 1009.2
20260903024527 83 244 5.2 13.0 0.00 0.00 0.00 35 1009.2
20260903024028 82 154 4.3 13.9 0.00 0.00 0.00 34 1009.2
20260903023530 82 132 4.3 13.9 0.00 0.00 0.00 35 1009.3
20260903023031 83 232 5.2 13.9 0.00 0.00 0.00 35 1009.3
20260903022524 83 248 7.0 16.5 0.00 0.00 0.00 35 1009.4
20260903022023 83 229 7.0 16.5 0.00 0.00 0.00 35 1009.4
20260903021524 82 246 7.8 17.4 0.00 0.00 0.00 36 1009.3
20260903021022 82 247 7.8 17.4 0.00 0.00 0.00 36 1009.2
20260903020523 82 249 6.1 19.1 0.00 0.00 0.00 37 1009.2
20260903020051 82 265 10.4 19.1 0.00 0.00 0.00 37 1009.3
20260903015518 82 246 7.8 17.4 0.00 0.00 0.00 37 1009.3
20260903015017 82 217 7.0 17.4 0.00 0.00 0.00 37 1009.2
20260903014516 82 255 3.5 13.0 0.00 0.00 0.00 39 1009.2
20260903014016 82 209 5.2 13.0 0.00 0.00 0.00 39 1009.2
20260903013514 82 207 5.2 18.2 0.00 0.00 0.00 39 1009.2
20260903013014 81 219 8.7 18.2 0.00 0.00 0.00 39 1009.2
20260903012512 81 250 7.8 16.5 0.00 0.00 0.00 39 1009.2
20260903012012 81 255 4.3 15.6 0.00 0.00 0.00 39 1009.1
20260903011511 81 284 6.1 17.4 0.00 0.00 0.00 40 1009.1
20260903011010 81 234 7.8 17.4 0.00 0.00 0.00 39 1008.9
20260903010511 81 246 8.7 14.8 0.00 0.00 0.00 40 1009.1
20260903010009 80 240 7.0 20.0 0.00 0.00 0.00 40 1009.1
20260903005507 80 293 7.0 20.0 0.00 0.00 0.00 40 1009.1
20260903005011 80 244 8.7 18.2 0.00 0.00 0.00 40 1009.2
20260903004504 80 237 8.7 16.5 0.00 0.00 0.00 40 1009.2
20260903004003 80 224 6.1 22.6 0.00 0.00 0.00 41 1009.2
20260903003501 79 347 13.0 23.5 0.00 0.00 0.00 40 1009.2
20260903003101 79 256 4.3 21.7 0.00 0.00 0.00 42 1009.3
20260903002559 79 269 13.0 25.2 0.00 0.00 0.00 41 1009.3
20260903002058 79 266 13.0 25.2 0.00 0.00 0.00 41 1009.1
20260903001608 78 303 8.7 21.7 0.00 0.00 0.00 42 1009.3
20260903001055 78 275 11.3 26.1 0.00 0.00 0.00 42 1009.2
20260903000554 78 282 13.9 26.1 0.00 0.00 0.00 41 1009.2
20260903000058 78 213 14.8 22.6 0.00 0.00 0.00 42 1009.2
20260902235553 78 225 10.4 20.0 0.00 0.00 0.00 42 1009.3
20260902235051 78 242 10.4 20.0 0.00 0.00 0.00 43 1009.3
20260902234549 78 254 8.7 20.0 0.00 0.00 0.00 43 1009.3
20260902234048 77 245 8.7 21.7 0.00 0.00 0.00 43 1009.3
20260902233548 77 299 13.9 21.7 0.00 0.00 0.00 43 1009.4
20260902233053 77 257 9.6 21.7 0.00 0.00 0.00 44 1009.6
20260902232544 76 301 9.6 23.5 0.00 0.00 0.00 45 1009.7
20260902232043 76 263 12.2 23.5 0.00 0.00 0.00 45 1009.7
20260902231542 75 282 7.8 20.9 0.00 0.00 0.00 48 1009.7
20260902231040 75 255 10.4 20.9 0.00 0.00 0.00 49 1009.7
20260902230538 74 244 4.3 12.2 0.00 0.00 0.00 52 1009.8
20260902230037 73 281 7.0 13.9 0.00 0.00 0.00 51 1009.8
20260902225540 73 320 7.0 14.8 0.00 0.00 0.00 52 1009.7
20260902225037 73 303 7.0 15.6 0.00 0.00 0.00 52 1009.7
20260902224534 72 279 5.2 15.6 0.00 0.00 0.00 53 1009.7
20260902224034 72 248 7.0 12.2 0.00 0.00 0.00 53 1009.8
20260902223531 71 278 4.3 13.0 0.00 0.00 0.00 53 1009.9
20260902223030 71 293 5.2 13.0 0.00 0.00 0.00 54 1009.9
20260902222531 71 242 5.2 11.3 0.00 0.00 0.00 54 1010.0
20260902222031 71 260 6.1 13.0 0.00 0.00 0.00 54 1010.0
20260902221542 71 273 5.2 13.0 0.00 0.00 0.00 55 1010.1
20260902221030 70 286 7.0 15.6 0.00 0.00 0.00 55 1010.2
20260902220526 70 257 5.2 15.6 0.00 0.00 0.00 56 1010.2
20260902220026 69 281 5.2 10.4 0.00 0.00 0.00 58 1010.2
20260902215528 68 277 4.3 9.6 0.00 0.00 0.00 60 1010.4
20260902215026 68 248 4.3 10.4 0.00 0.00 0.00 61 1010.3
20260902214526 67 283 5.2 10.4 0.00 0.00 0.00 63 1010.2
20260902214025 66 254 3.5 9.6 0.00 0.00 0.00 65 1010.2
20260902213525 65 246 3.5 9.6 0.00 0.00 0.00 66 1010.1
20260902213024 65 286 3.5 8.7 0.00 0.00 0.00 68 1010.1
20260902212524 64 264 2.6 6.1 0.00 0.00 0.00 69 1010.1
20260902212024 64 279 1.7 6.1 0.00 0.00 0.00 69 1010.0
20260902211523 63 271 1.7 5.2 0.00 0.00 0.00 69 1010.1
20260902211023 63 269 1.7 6.1 0.00 0.00 0.00 69 1010.0
20260902210522 63 242 1.7 6.1 0.00 0.00 0.00 69 1010.0
20260902210022 63 275 1.7 7.0 0.00 0.00 0.00 69 1010.0
20260902205520 63 328 1.7 5.2 0.00 0.00 0.00 69 1010.0
20260902205022 64 262 1.7 5.2 0.00 0.00 0.00 68 1009.9
20260902204519 64 296 1.7 4.3 0.00 0.00 0.00 68 1010.0
20260902204022 64 284 1.7 5.2 0.00 0.00 0.00 67 1009.9
20260902203519 64 261 1.7 7.0 0.00 0.00 0.00 67 1010.0
20260902203019 64 298 0.9 7.0 0.00 0.00 0.00 67 1009.9
20260902202518 64 262 2.6 7.8 0.00 0.00 0.00 67 1010.0
20260902202017 64 282 2.6 7.8 0.00 0.00 0.00 67 1010.0
20260902201517 64 288 1.7 6.1 0.00 0.00 0.00 67 1010.1
20260902201024 64 310 2.6 5.2 0.00 0.00 0.00 68 1010.0
20260902200515 64 22 1.7 4.3 0.00 0.00 0.00 67 1010.1
20260902200015 64 327 1.7 6.1 0.00 0.00 0.00 67 1010.1
20260902195519 64 221 1.7 7.0 0.00 0.00 0.00 68 1010.2
20260902195014 64 335 1.7 7.0 0.00 0.00 0.00 68 1010.2
20260902194525 64 318 0.9 7.0 0.00 0.00 0.00 68 1010.1
20260902194013 64 198 1.7 7.0 0.00 0.00 0.00 68 1010.2
20260902193513 64 297 3.5 7.0 0.00 0.00 0.00 67 1010.3
20260902193012 65 269 0.9 7.0 0.00 0.00 0.00 67 1010.3
20260902192511 65 313 2.6 7.0 0.00 0.00 0.00 67 1010.3
20260902192010 65 288 2.6 7.0 0.00 0.00 0.00 66 1010.3
20260902191515 65 319 3.5 7.8 0.00 0.00 0.00 66 1010.1
20260902191008 66 299 2.6 7.8 0.00 0.00 0.00 64 1010.1
20260902190507 66 289 2.6 7.0 0.00 0.00 0.00 63 1010.1
20260902190006 66 280 3.5 7.0 0.00 0.00 0.00 63 1010.3
20260902185505 66 265 3.5 9.6 0.00 0.00 0.00 62 1010.3
20260902185005 67 300 3.5 9.6 0.00 0.00 0.00 62 1010.2
20260902184504 67 232 2.6 7.0 0.00 0.00 0.00 62 1010.3
20260902184006 67 254 3.5 9.6 0.00 0.00 0.00 62 1010.4
20260902183503 67 262 3.5 8.7 0.00 0.00 0.00 62 1010.3
20260902183003 67 271 2.6 8.7 0.00 0.00 0.00 62 1010.5
20260902182503 67 254 3.5 7.8 0.00 0.00 0.00 62 1010.4
20260902182002 67 257 2.6 7.0 0.00 0.00 0.00 62 1010.5
20260902181609 67 236 3.5 7.0 0.00 0.00 0.00 61 1010.6
20260902181100 67 276 2.6 7.0 0.00 0.00 0.00 61 1010.5
20260902180559 68 271 2.6 7.0 0.00 0.00 0.00 60 1010.6
20260902180058 68 285 2.6 13.0 0.00 0.00 0.00 59 1010.6
20260902175556 68 246 5.2 13.0 0.00 0.00 0.00 59 1010.7
20260902175057 68 261 5.2 14.8 0.00 0.00 0.00 59 1010.9
20260902174555 68 281 7.0 14.8 0.00 0.00 0.00 59 1010.9
20260902174057 68 284 6.1 13.0 0.00 0.00 0.00 59 1010.8
20260902173554 68 277 5.2 12.2 0.00 0.00 0.00 59 1010.8
20260902173056 68 272 6.1 11.3 0.00 0.00 0.00 59 1010.9
20260902172553 68 242 7.0 12.2 0.00 0.00 0.00 59 1011.1
20260902172054 68 296 6.1 12.2 0.00 0.00 0.00 59 1011.1
20260902171605 68 265 6.1 15.6 0.00 0.00 0.00 59 1011.2
20260902171053 68 223 8.7 15.6 0.00 0.00 0.00 59 1011.3
20260902170549 68 267 7.8 14.8 0.00 0.00 0.00 59 1011.4
20260902170049 68 281 8.7 14.8 0.00 0.00 0.00 59 1011.5
20260902165547 69 266 7.0 13.0 0.00 0.00 0.00 58 1011.3
20260902165046 69 239 7.0 13.0 0.00 0.00 0.00 58 1011.5
20260902164558 69 232 6.1 15.6 0.00 0.00 0.00 58 1011.5
20260902164045 69 292 8.7 15.6 0.00 0.00 0.00 58 1011.6
20260902163545 68 260 7.0 12.2 0.00 0.00 0.00 58 1011.5
20260902163044 68 240 7.0 12.2 0.00 0.00 0.00 58 1011.5
20260902162543 69 250 4.3 18.2 0.00 0.00 0.00 57 1011.6
20260902162043 69 235 7.0 18.2 0.00 0.00 0.00 56 1011.7
20260902161546 69 257 6.1 13.9 0.00 0.00 0.00 56 1011.7
20260902161042 70 299 4.3 13.9 0.00 0.00 0.00 56 1011.7
20260902160540 70 313 6.1 14.8 0.00 0.00 0.00 56 1011.9
20260902160046 69 267 7.0 13.9 0.00 0.00 0.00 56 1012.2
20260902155538 68 240 5.2 10.4 0.00 0.00 0.00 56 1012.3
20260902155038 68 246 3.5 9.6 0.00 0.00 0.00 55 1012.2
20260902154550 68 273 3.5 7.0 0.00 0.00 0.00 55 1012.3
20260902154038 69 313 2.6 5.2 0.00 0.00 0.00 54 1012.3
20260902153534 69 324 2.6 8.7 0.00 0.00 0.00 54 1012.6
20260902153036 69 295 2.6 10.4 0.00 0.00 0.00 53 1012.7
20260902152532 69 243 4.3 10.4 0.00 0.00 0.00 53 1012.9
20260902152036 69 266 5.2 9.6 0.00 0.00 0.00 53 1012.9
20260902151537 69 259 3.5 9.6 0.00 0.00 0.00 53 1012.9
20260902151030 69 273 5.2 16.5 0.00 0.00 0.00 53 1013.1
20260902150530 69 269 5.2 16.5 0.00 0.00 0.00 53 1013.0
20260902150030 69 259 5.2 9.6 0.00 0.00 0.00 53 1013.0
20260902145529 69 290 3.5 11.3 0.00 0.00 0.00 53 1013.1
20260902145031 69 275 5.2 13.0 0.00 0.00 0.00 53 1013.1
20260902144529 69 277 5.2 13.0 0.00 0.00 0.00 53 1013.1
20260902144028 69 291 5.2 9.6 0.00 0.00 0.00 53 1013.1
20260902143527 69 294 4.3 9.6 0.00 0.00 0.00 53 1013.1
20260902143127 69 282 4.3 9.6 0.00 0.00 0.00 53 1013.1
20260902142526 69 257 4.3 10.4 0.00 0.00 0.00 52 1013.2
20260902142025 69 294 5.2 10.4 0.00 0.00 0.00 52 1013.2
20260902141533 69 263 5.2 9.6 0.00 0.00 0.00 52 1013.2
20260902141024 69 292 5.2 12.2 0.00 0.00 0.00 52 1013.3
20260902140523 69 278 5.2 12.2 0.00 0.00 0.00 53 1013.2
20260902140021 69 254 5.2 11.3 0.00 0.00 0.00 53 1013.2
20260902135521 69 295 4.3 9.6 0.00 0.00 0.00 53 1013.2
20260902135021 68 281 5.2 11.3 0.00 0.00 0.00 54 1013.3
20260902134522 68 274 4.3 11.3 0.00 0.00 0.00 55 1013.4
20260902134021 67 235 2.6 7.8 0.00 0.00 0.00 56 1013.4
20260902133529 67 284 2.6 7.8 0.00 0.00 0.00 56 1013.5
20260902133021 66 267 2.6 7.8 0.00 0.00 0.00 56 1013.5
20260902132524 67 303 2.6 7.8 0.00 0.00 0.00 55 1013.5
20260902132020 67 267 1.7 7.0 0.00 0.00 0.00 55 1013.4
20260902131520 67 308 1.7 5.2 0.00 0.00 0.00 54 1013.4
20260902131020 67 294 1.7 4.3 0.00 0.00 0.00 54 1013.5
20260902130519 67 289 0.9 7.0 0.00 0.00 0.00 53 1013.5
20260902130030 68 275 1.7 7.0 0.00 0.00 0.00 52 1013.6
20260902125521 68 275 1.7 5.2 0.00 0.00 0.00 52 1013.7
20260902125019 68 294 1.7 2.6 0.00 0.00 0.00 52 1013.6
20260902124519 69 288 1.7 2.6 0.00 0.00 0.00 51 1013.6
20260902124019 69 286 1.7 3.5 0.00 0.00 0.00 50 1013.7
20260902123519 70 252 0.9 4.3 0.00 0.00 0.00 49 1013.7
20260902123027 71 272 1.7 5.2 0.00 0.00 0.00 48 1013.7
20260902122519 71 266 1.7 6.1 0.00 0.00 0.00 47 1013.8
20260902122018 72 267 2.6 6.1 0.00 0.00 0.00 46 1013.9
20260902121519 72 252 2.6 6.1 0.00 0.00 0.00 46 1014.0
20260902121021 72 279 2.6 9.6 0.00 0.00 0.00 46 1014.1
20260902120519 72 286 2.6 11.3 0.00 0.00 0.00 46 1014.1
20260902120017 72 263 2.6 7.0 0.00 0.00 0.00 46 1014.1
20260902115517 72 239 2.6 7.8 0.00 0.00 0.00 45 1014.1
20260902115017 73 266 2.6 7.8 0.00 0.00 0.00 45 1014.2
20260902114524 72 267 2.6 7.0 0.00 0.00 0.00 45 1014.2
20260902114017 72 254 3.5 7.0 0.00 0.00 0.00 45 1014.2
20260902113516 73 275 2.6 7.8 0.00 0.00 0.00 44 1014.2
20260902113016 73 284 2.6 7.8 0.00 0.00 0.00 44 1014.2
20260902112516 73 271 3.5 8.7 0.00 0.00 0.00 43 1014.2
20260902112017 73 263 2.6 8.7 0.00 0.00 0.00 43 1014.2
20260902111518 73 270 3.5 8.7 0.00 0.00 0.00 43 1014.2
20260902111017 74 283 4.3 10.4 0.00 0.00 0.00 43 1014.2
20260902110515 74 262 5.2 10.4 0.00 0.00 0.00 42 1014.1
20260902110015 74 269 6.1 10.4 0.00 0.00 0.00 42 1014.1
20260902105515 74 282 5.2 14.8 0.00 0.00 0.00 42 1014.2
20260902105019 74 264 7.8 14.8 0.00 0.00 0.00 42 1014.2
20260902104521 74 249 7.0 11.3 0.00 0.00 0.00 43 1014.1
20260902104015 74 306 5.2 10.4 0.00 0.00 0.00 43 1014.1
20260902103514 74 300 5.2 10.4 0.00 0.00 0.00 44 1014.2
20260902103014 74 219 5.2 10.4 0.00 0.00 0.00 44 1014.2
20260902102514 74 233 3.5 9.6 0.00 0.00 0.00 44 1014.1
20260902102015 74 258 4.3 10.4 0.00 0.00 0.00 44 1014.1
20260902101513 74 280 6.1 11.3 0.00 0.00 0.00 44 1014.1
20260902101013 74 271 4.3 11.3 0.00 0.00 0.00 44 1014.0
20260902100513 74 276 4.3 8.7 0.00 0.00 0.00 44 1013.8
20260902100013 74 271 4.3 8.7 0.00 0.00 0.00 45 1013.7
20260902095512 73 245 4.3 7.8 0.00 0.00 0.00 45 1013.7
20260902095011 74 258 2.6 7.8 0.00 0.00 0.00 45 1013.8
20260902094512 73 236 3.5 7.0 0.00 0.00 0.00 45 1013.9
20260902094012 73 269 3.5 7.0 0.00 0.00 0.00 45 1013.7
20260902093511 73 283 2.6 5.2 0.00 0.00 0.00 46 1013.7
20260902093112 73 276 2.6 6.1 0.00 0.00 0.00 46 1013.6
20260902092511 73 279 2.6 7.0 0.00 0.00 0.00 47 1013.6
20260902092015 73 269 2.6 6.1 0.00 0.00 0.00 47 1013.5
20260902091511 73 226 2.6 7.8 0.00 0.00 0.00 49 1013.5
20260902091014 73 262 3.5 7.8 0.00 0.00 0.00 49 1013.3
20260902090510 72 232 3.5 7.0 0.00 0.00 0.00 52 1013.3
20260902090012 72 282 3.5 6.1 0.00 0.00 0.00 53 1013.3
20260902085511 72 285 2.6 6.1 0.00 0.00 0.00 53 1013.3
20260902085010 73 275 3.5 6.1 0.00 0.00 0.00 53 1013.2
20260902084510 73 284 3.5 6.1 0.00 0.00 0.00 53 1013.2
20260902084010 73 279 2.6 6.1 0.00 0.00 0.00 53 1013.2
20260902083510 73 263 2.6 6.1 0.00 0.00 0.00 53 1013.1
20260902083010 73 279 2.6 6.1 0.00 0.00 0.00 53 1013.1
20260902082509 73 264 1.7 6.1 0.00 0.00 0.00 52 1013.0
20260902082009 73 261 2.6 5.2 0.00 0.00 0.00 52 1013.0
20260902081509 73 297 1.7 4.3 0.00 0.00 0.00 52 1012.9
20260902081010 74 273 1.7 3.5 0.00 0.00 0.00 51 1012.9
20260902080509 74 254 0.9 3.5 0.00 0.00 0.00 51 1012.8
20260902080008 74 251 1.7 3.5 0.00 0.00 0.00 50 1012.8
20260902075508 75 270 0.9 3.5 0.00 0.00 0.00 49 1012.8
20260902075008 75 284 1.7 6.1 0.00 0.00 0.00 48 1012.7